[Date Prev][Date Next][Thread Prev][Thread Next] - [Date Index][Thread Index][Author Index]
2 Line ISS Keps 6-28
- Subject: [sarex] 2 Line ISS Keps 6-28
- From: "Dave Larsen PhD" <doc@xxxxxxxxxxx>
- Date: Mon, 27 Jun 2005 20:21:21 -0700
ISS
1 25544U 98067A 05178.67372685 .00007954 00000-0 61123-4 0 7906
2 25544 051.6437 207.1427 0004076 314.9838 191.5263 15.73131992377335
----
Via the sarex mailing list at AMSAT.ORG courtesy of AMSAT-NA.
To unsubscribe, send "unsubscribe sarex" to Majordomo@amsat.org
AMSAT Home